Weather History for KPSX - November, 2014

Change the Weather History Date:

Wednesday, November 19, 2014

  Actual Average Record
Temperature  
Mean Temperature 54 °F -  
Max Temperature 68 °F 72 °F 82 °F (1950)
Min Temperature 39 °F 55 °F 32 °F (1959)
Degree Days  
Heating Degree Days 12    
Growing Degree Days 4 (Base 50)    
Moisture  
Dew Point 47 °F    
Average Humidity 76    
Maximum Humidity 90    
Minimum Humidity 57    
Precipitation  
Precipitation 0.00 in - - ()
Sea Level Pressure  
Sea Level Pressure 30.29 in    
Wind  
Wind Speed 6 mph (SE)    
Max Wind Speed 8 mph    
Max Gust Speed -    
Visibility 10 miles    
Events      
Averages and records for this station are not official NWS values.
T = Trace of Precipitation, MM = Missing Value Source: NWS Daily Summary

Daily Weather History Graph

Daily Weather History Graph

Search for Another Location

Airport or City:

Trip Planner

Search our weather history database for the weather conditions in past years. The results will help you decide how hot, cold, wet, or windy it might be!

Date:

Astronomy

Nov. 19, 2014 Rise Set
Actual Time 6:51 AM CST 5:29 PM CST
Civil Twilight 6:25 AM CST 5:54 PM CST
Nautical Twilight 5:57 AM CST 6:23 PM CST
Astronomical Twilight 5:28 AM CST 6:51 PM CST
Moon 4:02 AM CST (11/19) 3:45 PM CST (11/19)
Length of Visible Light 11h 28m
Length of Day
10h 38m
Waning Crescent, 8% of the Moon is Illuminated
Nov 19
Waning Crescent
Nov 22
New
Nov 29
First Quarter
Dec 6
Full
Dec 14
Last Quarter

Hourly Weather History & Observations

Time (CST) Temp. Windchill Dew Point Humidity Pressure Visibility Wind Dir Wind Speed Gust Speed Precip Events Conditions
12:53 AM 39.9 °F 35.1 °F 34.0 °F 79% 30.41 in 10.0 mi ENE 6.9 mph - N/A   Scattered Clouds
1:53 AM 39.0 °F 33.4 °F 34.0 °F 82% 30.40 in 10.0 mi ENE 8.1 mph - N/A   Partly Cloudy
2:53 AM 41.0 °F 37.1 °F 36.0 °F 82% 30.37 in 10.0 mi ENE 5.8 mph - N/A   Mostly Cloudy
3:53 AM 41.0 °F 38.0 °F 37.0 °F 86% 30.35 in 10.0 mi ENE 4.6 mph - N/A   Mostly Cloudy
4:53 AM 39.9 °F 35.8 °F 37.0 °F 89% 30.35 in 10.0 mi NE 5.8 mph - N/A   Clear
5:53 AM 39.9 °F 35.1 °F 37.0 °F 89% 30.34 in 10.0 mi ENE 6.9 mph - N/A   Clear
6:53 AM 41.0 °F 38.0 °F 37.9 °F 89% 30.34 in 10.0 mi ENE 4.6 mph - N/A   Clear
7:53 AM 46.9 °F - 43.0 °F 86% 30.33 in 9.0 mi ENE 4.6 mph - N/A   Clear
8:53 AM 55.9 °F - 48.9 °F 77% 30.33 in 10.0 mi ENE 3.5 mph - N/A   Partly Cloudy
9:53 AM 64.0 °F - 51.1 °F 63% 30.34 in 10.0 mi SSW 5.8 mph - N/A   Clear
10:53 AM 64.9 °F - 50.0 °F 58% 30.33 in 10.0 mi SSW 5.8 mph - N/A   Mostly Cloudy
11:53 AM 66.9 °F - 52.0 °F 59% 30.31 in 10.0 mi South 6.9 mph - N/A   Mostly Cloudy
12:53 PM 66.9 °F - 51.1 °F 57% 30.27 in 10.0 mi SSW 6.9 mph - N/A   Scattered Clouds
1:53 PM 66.9 °F - 52.0 °F 59% 30.25 in 10.0 mi South 8.1 mph - N/A   Scattered Clouds
2:53 PM 68.0 °F - 53.1 °F 59% 30.22 in 10.0 mi SSW 5.8 mph - N/A   Partly Cloudy
3:53 PM 66.9 °F - 53.1 °F 61% 30.22 in 10.0 mi SSW 5.8 mph - N/A   Mostly Cloudy
4:53 PM 64.9 °F - 53.1 °F 65% 30.21 in 10.0 mi South 3.5 mph - N/A   Partly Cloudy
5:53 PM 59.0 °F - 53.1 °F 81% 30.21 in 10.0 mi SE 4.6 mph - N/A   Mostly Cloudy
6:53 PM 55.9 °F - 51.1 °F 84% 30.22 in 10.0 mi SE 6.9 mph - N/A   Clear
7:53 PM 54.0 °F - 50.0 °F 86% 30.23 in 10.0 mi SE 8.1 mph - N/A   Clear
8:53 PM 55.9 °F - 52.0 °F 87% 30.22 in 10.0 mi SE 5.8 mph - N/A   Clear
9:53 PM 57.9 °F - 54.0 °F 87% 30.22 in 10.0 mi SE 6.9 mph - N/A   Mostly Cloudy
11:53 PM 55.9 °F - 53.1 °F 90% 30.20 in 10.0 mi ESE 4.6 mph - N/A   Mostly Cloudy